FW9021 Weather Reports


Display with metric or nautical units.
time (UTC)temp
F
wind
direction
speed
MPH
gust
MPH
rain 1hr
in
rain 24hr
in
rain mn
in
humidity
%
barometer
mb
20260508102538 46 46 0.0 4.0 0.00 0.26 0.00 88 1014.9
20260508102043 46 46 1.0 4.0 0.00 0.26 0.00 88 1014.9
20260508101544 46 5 1.0 5.0 0.00 0.26 0.00 88 1014.9
20260508101039 46 69 2.0 5.0 0.00 0.26 0.00 88 1014.8
20260508100538 46 0 0.0 2.0 0.00 0.26 0.00 88 1014.9
20260508100049 46 0 0.0 2.0 0.00 0.26 0.00 88 1014.8
20260508095538 46 64 1.0 3.0 0.00 0.31 0.00 88 1014.8
20260508095039 46 43 1.0 3.0 0.00 0.31 0.00 88 1014.8
20260508094544 46 19 0.0 4.0 0.00 0.31 0.00 88 1014.8
20260508094038 46 38 1.0 4.0 0.00 0.31 0.00 88 1014.9
20260508093538 46 22 2.0 4.0 0.00 0.31 0.00 88 1014.8
20260508093053 46 61 0.0 2.0 0.00 0.31 0.00 88 1014.7
20260508092542 46 70 0.0 2.0 0.00 0.31 0.00 88 1014.7
20260508092039 47 0 0.0 2.0 0.00 0.31 0.00 88 1014.6
20260508091551 47 70 0.0 2.0 0.00 0.31 0.00 88 1014.6
20260508091042 47 70 1.0 3.0 0.00 0.31 0.00 92 1014.5
20260508090539 47 24 1.0 3.0 0.00 0.31 0.00 88 1014.6
20260508090051 47 0 0.0 2.0 0.00 0.31 0.00 88 1014.5
20260508085538 47 0 0.0 2.0 0.00 0.32 0.00 88 1014.4
20260508085041 47 57 0.0 2.0 0.00 0.32 0.00 88 1014.5
20260508084548 47 57 1.0 3.0 0.00 0.32 0.00 88 1014.4
20260508084039 47 57 0.0 4.0 0.00 0.32 0.00 88 1014.5
20260508083539 47 0 1.0 4.0 0.00 0.32 0.00 88 1014.4
20260508083104 47 43 2.0 3.0 0.00 0.32 0.00 88 1014.4
20260508082538 48 39 1.0 3.0 0.00 0.32 0.00 88 1014.5
20260508082038 48 60 0.0 2.0 0.00 0.32 0.00 88 1014.4
20260508081551 48 60 0.0 2.0 0.00 0.32 0.00 88 1014.4
20260508081038 48 60 1.0 3.0 0.00 0.32 0.00 87 1014.3
20260508080541 48 55 1.0 3.0 0.00 0.32 0.00 87 1014.5
20260508080049 48 42 1.0 2.0 0.00 0.32 0.00 87 1014.6
20260508075538 48 71 0.0 2.0 0.00 0.33 0.00 87 1014.5
20260508075038 48 0 0.0 2.0 0.00 0.33 0.00 87 1014.5
20260508074552 48 0 0.0 2.0 0.00 0.33 0.00 87 1014.5
20260508074041 48 71 0.0 2.0 0.00 0.33 0.00 87 1014.5
20260508073539 48 72 0.0 2.0 0.00 0.33 0.00 87 1014.4
20260508073047 48 120 0.0 2.0 0.00 0.33 0.00 87 1014.6
20260508072538 48 120 1.0 3.0 0.00 0.33 0.00 88 1014.6
20260508072038 48 120 1.0 3.0 0.00 0.33 0.00 88 1014.6
20260508071551 49 120 1.0 3.0 0.00 0.33 0.00 88 1014.6
20260508071038 49 0 0.0 2.0 0.00 0.33 0.00 87 1014.6
20260508070541 49 0 0.0 2.0 0.00 0.33 0.00 88 1014.4
20260508070054 49 43 0.0 3.0 0.00 0.33 0.00 87 1014.6
20260508065538 49 0 0.0 3.0 0.00 0.39 0.00 87 1014.6
20260508065038 49 63 0.0 2.0 0.00 0.39 0.00 87 1014.6
20260508064544 49 78 1.0 2.0 0.00 0.39 0.00 87 1014.6
20260508064040 50 71 0.0 2.0 0.00 0.39 0.00 87 1014.8
20260508063539 50 71 1.0 3.0 0.00 0.39 0.00 87 1014.7
20260508063050 50 0 0.0 3.0 0.00 0.39 0.00 87 1014.9
20260508062538 50 20 1.0 3.0 0.00 0.39 0.00 87 1015.0
20260508062039 50 37 0.0 2.0 0.00 0.39 0.00 88 1015.0
20260508061550 50 90 1.0 2.0 0.00 0.39 0.00 88 1014.9
20260508061039 50 90 1.0 2.0 0.00 0.39 0.00 88 1014.9
20260508060538 50 0 0.0 2.0 0.00 0.39 0.00 87 1014.9
20260508060048 50 0 0.0 2.0 0.00 0.39 0.00 87 1015.0
20260508055540 50 86 0.0 2.0 0.00 0.49 0.00 88 1014.9
20260508055039 51 86 1.0 2.0 0.00 0.49 0.00 87 1014.9
20260508054556 51 86 1.0 2.0 0.00 0.49 0.00 87 1014.9
20260508054041 51 73 1.0 2.0 0.00 0.49 0.00 87 1014.9
20260508053540 52 66 1.0 3.0 0.00 0.49 0.00 87 1014.7
20260508053047 52 31 0.0 3.0 0.00 0.49 0.00 87 1014.7
20260508052539 52 14 1.0 4.0 0.00 0.49 0.00 87 1014.6
20260508052040 52 341 2.0 4.0 0.00 0.49 0.00 87 1014.7
20260508051546 52 315 2.0 6.0 0.00 0.49 0.00 87 1014.8
20260508051042 52 290 2.0 6.0 0.00 0.49 0.00 87 1014.8
20260508050541 52 309 2.0 4.0 0.00 0.49 0.00 87 1014.8
20260508050051 52 281 2.0 4.0 0.00 0.49 0.00 87 1014.9
20260508045543 52 283 2.0 4.0 0.00 0.65 0.00 87 1014.9
20260508045040 53 315 2.0 4.0 0.00 0.65 0.00 86 1014.7
20260508044544 53 336 2.0 4.0 0.00 0.65 0.00 86 1014.8
20260508044041 53 13 1.0 3.0 0.00 0.65 0.00 86 1014.8
20260508043540 53 0 0.0 2.0 0.00 0.65 0.00 87 1014.9
20260508043046 53 0 0.0 1.0 0.00 0.65 0.00 87 1014.5
20260508042540 53 0 0.0 1.0 0.00 0.65 0.00 87 1014.6
20260508042041 53 0 0.0 3.0 0.00 0.65 0.00 87 1014.6
20260508041548 53 0 0.0 3.0 0.00 0.65 0.00 87 1014.5
20260508041040 53 34 2.0 4.0 0.00 0.65 0.00 87 1014.4
20260508040540 53 33 2.0 4.0 0.00 0.65 0.00 87 1014.5
20260508040051 54 30 1.0 3.0 0.00 0.65 0.00 87 1014.4
20260508035539 54 42 1.0 2.0 0.00 0.73 0.65 87 1014.4
20260508035039 54 49 0.0 2.0 0.00 0.73 0.65 87 1014.4
20260508034548 54 49 0.0 2.0 0.00 0.73 0.65 87 1014.5
20260508034038 54 0 0.0 2.0 0.00 0.73 0.65 87 1014.4
20260508033538 54 49 0.0 2.0 0.00 0.73 0.65 87 1014.4
20260508033048 54 29 0.0 2.0 0.00 0.73 0.65 87 1014.3
20260508032539 54 29 0.0 2.0 0.00 0.73 0.65 87 1014.4
20260508032043 54 42 1.0 2.0 0.00 0.73 0.65 87 1014.4
20260508031546 54 0 0.0 0.0 0.00 0.73 0.65 87 1014.4
20260508031038 54 0 0.0 0.0 0.00 0.73 0.65 87 1014.5
20260508030538 54 0 0.0 1.0 0.00 0.73 0.65 87 1014.4
20260508030048 54 0 0.0 1.0 0.00 0.73 0.65 87 1014.4
20260508025539 54 44 0.0 1.0 0.00 0.73 0.65 87 1014.3
20260508025038 54 0 0.0 2.0 0.00 0.73 0.65 87 1014.2
20260508024554 54 44 0.0 2.0 0.00 0.73 0.65 87 1014.3
20260508024039 54 44 0.0 3.0 0.00 0.73 0.65 87 1014.2
20260508023538 54 352 1.0 3.0 0.00 0.73 0.65 87 1014.3
20260508023051 54 37 1.0 4.0 0.00 0.73 0.65 87 1014.3
20260508022538 54 38 1.0 4.0 0.00 0.73 0.65 87 1014.3
20260508022039 54 85 0.0 2.0 0.00 0.73 0.65 87 1014.2
20260508021552 54 0 1.0 2.0 0.00 0.73 0.65 87 1014.0
20260508021038 54 0 0.0 2.0 0.00 0.73 0.65 87 1014.2
20260508020540 54 85 1.0 2.0 0.00 0.73 0.65 87 1014.0
20260508020053 54 85 0.0 2.0 0.00 0.73 0.65 87 1014.1
20260508015538 55 85 0.0 2.0 0.00 0.74 0.65 87 1014.0
20260508015038 55 0 1.0 2.0 0.00 0.74 0.65 87 1013.9
20260508014552 55 90 0.0 2.0 0.00 0.74 0.65 87 1013.8
20260508014037 55 0 1.0 2.0 0.00 0.74 0.65 87 1013.8
20260508013541 55 46 1.0 2.0 0.00 0.74 0.65 87 1013.7
20260508013052 55 0 0.0 2.0 0.00 0.74 0.65 87 1013.8
20260508012538 56 61 0.0 2.0 0.00 0.74 0.65 87 1013.7
20260508012039 56 61 0.0 3.0 0.00 0.74 0.65 87 1013.6
20260508011552 56 58 1.0 3.0 0.00 0.74 0.65 87 1013.6
20260508011038 56 0 0.0 2.0 0.00 0.74 0.65 87 1013.7
20260508010538 56 61 1.0 2.0 0.00 0.74 0.65 87 1013.5
20260508010048 57 42 0.0 2.0 0.00 0.74 0.65 87 1013.5
20260508005540 57 0 0.0 2.0 0.00 0.77 0.65 86 1013.4
20260508005041 57 25 0.0 3.0 0.00 0.77 0.65 86 1013.4
20260508004554 57 31 1.0 3.0 0.00 0.77 0.65 86 1013.3
20260508004039 57 57 1.0 2.0 0.00 0.77 0.65 85 1013.4
20260508003540 58 0 0.0 1.0 0.00 0.77 0.65 85 1013.4
20260508003049 58 57 0.0 1.0 0.00 0.77 0.65 84 1013.1
20260508002542 58 0 0.0 2.0 0.00 0.77 0.65 84 1013.2
20260508002040 59 57 0.0 2.0 0.00 0.77 0.65 84 1013.0
20260508001547 59 53 0.0 2.0 0.00 0.77 0.65 83 1013.0
20260508001041 59 0 0.0 3.0 0.00 0.77 0.65 83 1013.0
20260508000542 59 0 1.0 3.0 0.00 0.77 0.65 82 1012.8
20260508000047 60 35 1.0 5.0 0.00 0.77 0.65 81 1012.8
20260507235541 60 35 1.0 6.0 0.00 0.93 0.65 81 1012.5
20260507235041 60 5 2.0 7.0 0.00 0.93 0.65 80 1012.6
20260507234551 60 332 3.0 7.0 0.00 0.93 0.65 81 1012.5
20260507234041 60 0 3.0 7.0 0.00 0.93 0.65 81 1012.6
20260507233545 60 26 3.0 7.0 0.00 0.93 0.65 80 1012.5
20260507233052 60 330 2.0 10.0 0.00 0.93 0.65 80 1012.7
20260507232541 60 323 3.0 10.0 0.00 0.93 0.65 80 1012.7
20260507232040 60 306 3.0 6.0 0.00 0.93 0.65 79 1012.6
20260507231555 61 24 2.0 6.0 0.00 0.93 0.65 79 1012.5
20260507231041 61 360 2.0 4.0 0.00 0.93 0.65 79 1012.5
20260507230542 61 337 2.0 5.0 0.00 0.93 0.65 79 1012.6
20260507225540 60 331 3.0 5.0 0.00 0.99 0.65 79 1012.6
20260507225044 60 319 3.0 5.0 0.00 0.99 0.65 79 1012.6
20260507224557 60 352 3.0 5.0 0.00 0.99 0.65 79 1012.4
20260507224045 60 276 2.0 10.0 0.00 0.99 0.65 80 1012.6
20260507223540 60 308 3.0 10.0 0.00 0.99 0.65 80 1012.7
20260507223050 59 320 5.0 10.0 0.00 0.99 0.65 79 1012.5
20260507222539 59 27 4.0 9.0 0.00 0.99 0.65 79 1012.6
20260507222040 60 5 4.0 12.0 0.00 0.99 0.65 80 1012.8
20260507221550 60 351 6.0 12.0 0.00 0.99 0.65 80 1012.7
20260507221041 60 332 5.0 11.0 0.00 0.99 0.65 80 1012.7
20260507220541 60 321 3.0 9.0 0.00 0.99 0.65 81 1012.6
20260507220056 60 9 3.0 12.0 0.00 0.99 0.65 81 1012.6
20260507215540 60 348 5.0 15.0 0.00 1.13 0.65 80 1012.6
20260507215039 60 325 7.0 15.0 0.00 1.13 0.65 80 1012.5
20260507214613 60 22 10.0 15.0 0.00 1.13 0.65 79 1012.5
20260507214039 61 24 3.0 10.0 0.00 1.13 0.65 78 1012.5
20260507213538 61 333 5.0 14.0 0.00 1.13 0.65 78 1012.2
20260507213104 61 321 5.0 14.0 0.00 1.13 0.65 78 1012.0
20260507212538 61 5 6.0 12.0 0.00 1.13 0.65 77 1012.2
20260507212040 61 17 6.0 13.0 0.00 1.13 0.65 78 1012.1
20260507211607 61 252 7.0 13.0 0.00 1.13 0.65 79 1012.1
20260507211037 61 360 4.0 13.0 0.00 1.13 0.65 80 1012.2
20260507210539 60 44 4.0 13.0 0.00 1.13 0.65 82 1012.0
20260507210054 60 40 7.0 13.0 0.00 1.13 0.65 81 1012.0
20260507205538 60 5 6.0 12.0 0.00 1.45 0.65 81 1011.8
20260507205039 60 28 5.0 10.0 0.00 1.45 0.65 82 1011.7
20260507204601 60 11 3.0 16.0 0.00 1.45 0.65 81 1011.7
20260507204042 60 351 8.0 16.0 0.00 1.45 0.65 82 1011.7
20260507203539 60 317 5.0 11.0 0.00 1.45 0.65 82 1011.8
20260507203051 59 22 6.0 13.0 0.00 1.45 0.65 83 1012.0
20260507202542 59 0 4.0 13.0 0.00 1.45 0.65 84 1011.9
20260507202040 59 327 6.0 12.0 0.00 1.45 0.65 85 1011.8
20260507201549 59 19 7.0 12.0 0.00 1.45 0.65 85 1011.8
20260507201038 59 360 8.0 13.0 0.00 1.45 0.65 84 1012.0
20260507200537 60 332 8.0 14.0 0.00 1.45 0.65 84 1011.8
20260507200050 60 339 6.0 14.0 0.00 1.45 0.65 84 1011.8
20260507195543 60 342 8.0 14.0 0.00 1.45 0.65 84 1011.8
20260507195038 60 307 2.0 10.0 0.00 1.45 0.65 85 1011.8
20260507194617 60 311 4.0 10.0 0.00 1.45 0.65 84 1011.8
20260507194038 60 360 5.0 10.0 0.00 1.45 0.65 84 1012.0
20260507193538 60 277 5.0 11.0 0.00 1.45 0.65 84 1012.2
20260507193047 60 5 5.0 11.0 0.00 1.45 0.65 84 1012.1
20260507192539 60 297 6.0 12.0 0.00 1.45 0.65 84 1012.0
20260507192038 60 323 4.0 12.0 0.00 1.45 0.65 84 1011.9
20260507191555 60 304 5.0 12.0 0.00 1.45 0.65 85 1011.8
20260507191038 59 234 2.0 6.0 0.00 1.45 0.65 86 1011.9
20260507190538 59 57 3.0 8.0 0.00 1.45 0.65 86 1011.8
20260507190052 59 345 2.0 8.0 0.00 1.45 0.65 86 1011.8
20260507185538 58 350 4.0 8.0 0.00 1.45 0.65 86 1011.8
20260507185042 58 36 5.0 8.0 0.00 1.45 0.65 86 1011.8
20260507184558 58 329 4.0 7.0 0.00 1.45 0.65 86 1011.8
20260507184039 58 360 3.0 8.0 0.00 1.45 0.65 86 1011.9
20260507183540 58 9 2.0 9.0 0.00 1.45 0.65 87 1012.1
20260507183052 58 16 4.0 9.0 0.00 1.45 0.65 87 1012.2
20260507182540 58 5 4.0 10.0 0.00 1.45 0.65 87 1012.3
20260507182039 58 324 3.0 10.0 0.00 1.45 0.65 87 1012.4
20260507181546 58 327 3.0 11.0 0.00 1.45 0.65 87 1012.4
20260507181038 58 337 6.0 11.0 0.00 1.45 0.65 87 1012.3
20260507180539 58 32 5.0 9.0 0.00 1.45 0.65 87 1012.3
20260507180051 58 331 4.0 8.0 0.00 1.45 0.65 87 1012.3
20260507175538 58 47 2.0 6.0 0.00 1.45 0.65 87 1012.4
20260507175038 58 303 2.0 8.0 0.00 1.45 0.65 87 1012.2
20260507174547 58 298 4.0 8.0 0.00 1.45 0.65 87 1012.4
20260507174039 58 67 4.0 8.0 0.00 1.45 0.65 87 1012.4
20260507173538 58 352 2.0 8.0 0.00 1.45 0.65 87 1012.3
20260507173050 58 51 3.0 6.0 0.00 1.45 0.65 87 1012.4
20260507172539 57 254 1.0 7.0 0.00 1.45 0.65 87 1012.5
20260507172038 57 18 2.0 13.0 0.00 1.45 0.65 87 1012.5
20260507171551 57 5 4.0 13.0 0.00 1.45 0.65 87 1012.5
20260507171039 57 360 5.0 11.0 0.00 1.45 0.65 87 1012.6
20260507170541 57 355 5.0 14.0 0.00 1.45 0.65 87 1012.4
20260507170048 57 352 7.0 14.0 0.00 1.45 0.65 87 1012.5
20260507165538 57 352 8.0 14.0 0.00 1.45 0.65 87 1012.7
20260507165038 57 306 5.0 18.0 0.00 1.45 0.65 86 1012.5
20260507164555 57 345 8.0 18.0 0.00 1.45 0.65 86 1012.4
20260507164038 57 308 6.0 19.0 0.00 1.45 0.65 86 1012.4
20260507163540 57 342 9.0 19.0 0.00 1.45 0.65 86 1012.2
20260507163050 57 351 8.0 15.0 0.00 1.45 0.65 86 1012.3
20260507162539 58 288 10.0 17.0 0.00 1.45 0.65 86 1012.2
20260507162038 58 328 9.0 20.0 0.00 1.45 0.65 87 1012.1
20260507161550 58 5 10.0 20.0 0.00 1.45 0.65 86 1011.9
20260507161039 59 20 12.0 20.0 0.00 1.45 0.65 86 1011.7
20260507160540 59 352 10.0 18.0 0.00 1.45 0.65 86 1011.5
20260507160051 59 5 7.0 14.0 0.00 1.45 0.65 86 1011.5
20260507155539 59 10 5.0 12.0 0.00 1.52 0.65 86 1011.4
20260507155039 59 17 7.0 12.0 0.00 1.52 0.65 86 1011.5
20260507154548 59 360 5.0 11.0 0.00 1.52 0.65 86 1011.4
20260507154041 59 352 6.0 11.0 0.00 1.52 0.65 86 1011.4
20260507153540 59 5 5.0 11.0 0.00 1.52 0.65 86 1011.3
20260507153052 59 352 6.0 15.0 0.00 1.52 0.65 85 1011.5
20260507152538 59 333 9.0 15.0 0.00 1.52 0.65 85 1011.4
20260507152039 59 5 5.0 10.0 0.00 1.52 0.65 85 1011.5
20260507151549 59 18 4.0 10.0 0.00 1.52 0.65 85 1011.4
20260507151038 59 346 4.0 12.0 0.00 1.52 0.65 85 1011.4
20260507150538 59 337 5.0 12.0 0.00 1.52 0.65 85 1011.3
20260507150052 59 343 5.0 11.0 0.00 1.52 0.65 85 1011.2
20260507145538 59 13 7.0 11.0 0.00 1.75 0.65 85 1011.2
20260507145038 59 326 6.0 11.0 0.00 1.75 0.65 84 1011.1
20260507144553 59 44 4.0 10.0 0.00 1.75 0.65 85 1011.3
20260507144039 59 352 6.0 10.0 0.00 1.75 0.65 85 1011.5
20260507143538 59 331 5.0 10.0 0.00 1.75 0.65 85 1011.5
20260507143043 59 331 3.0 9.0 0.00 1.75 0.65 85 1011.5
20260507142539 59 355 4.0 9.0 0.00 1.75 0.65 85 1011.5
20260507142038 59 323 5.0 9.0 0.00 1.75 0.65 85 1011.5
20260507141553 59 344 3.0 11.0 0.00 1.75 0.65 85 1011.6
20260507141038 59 290 5.0 11.0 0.00 1.75 0.65 85 1011.6
20260507140537 60 342 4.0 10.0 0.00 1.75 0.65 85 1011.4
20260507140052 60 13 4.0 10.0 0.00 1.75 0.65 85 1011.2
20260507135541 60 352 4.0 9.0 0.00 1.75 0.65 84 1011.1
20260507135038 60 305 4.0 9.0 0.00 1.75 0.65 84 1011.1
20260507134550 61 327 3.0 8.0 0.00 1.75 0.65 84 1011.2
20260507134037 61 271 3.0 7.0 0.00 1.75 0.65 84 1011.0
20260507133539 61 333 2.0 5.0 0.00 1.75 0.65 84 1010.9
20260507133054 61 262 2.0 5.0 0.00 1.75 0.65 84 1010.8
20260507132538 61 280 2.0 6.0 0.01 1.75 0.65 84 1010.7
20260507132038 61 301 1.0 6.0 0.02 1.75 0.65 84 1010.6
20260507131609 61 279 2.0 8.0 0.03 1.75 0.65 84 1010.4
20260507131038 60 340 3.0 8.0 0.03 1.75 0.65 84 1010.3
20260507130540 60 336 3.0 5.0 0.04 1.75 0.65 84 1010.3
20260507130043 60 355 3.0 5.0 0.04 1.75 0.65 84 1010.1
20260507125538 60 348 2.0 4.0 0.04 1.75 0.65 84 1009.9
20260507125038 60 11 2.0 3.0 0.04 1.75 0.65 84 1010.1
20260507124551 60 337 1.0 3.0 0.05 1.75 0.65 84 1010.3
20260507124038 60 0 1.0 4.0 0.06 1.75 0.65 84 1010.4
20260507123538 60 17 1.0 4.0 0.08 1.75 0.65 84 1010.5
20260507123051 60 0 0.0 3.0 0.09 1.75 0.65 84 1010.7
20260507122538 60 0 1.0 3.0 0.10 1.74 0.64 84 1010.7
20260507122038 60 344 0.0 4.0 0.09 1.73 0.63 84 1010.7
20260507121549 60 300 2.0 4.0 0.09 1.72 0.62 84 1011.2
20260507121039 60 290 3.0 7.0 0.09 1.72 0.62 84 1011.5
20260507120538 60 284 2.0 7.0 0.08 1.71 0.61 84 1011.2
20260507120047 61 305 5.0 7.0 0.09 1.71 0.61 84 1011.2
20260507115539 60 257 1.0 5.0 0.09 1.71 0.61 84 1010.8
20260507115038 60 252 1.0 4.0 0.10 1.71 0.61 84 1010.6
20260507114547 60 271 1.0 4.0 0.10 1.70 0.60 84 1010.7
20260507114038 60 340 1.0 3.0 0.09 1.69 0.58 84 1010.4
20260507113539 60 0 1.0 3.0 0.08 1.67 0.57 84 1010.2
20260507113044 60 277 1.0 3.0 0.06 1.65 0.55 84 1010.5
20260507112538 60 264 2.0 4.0 0.06 1.64 0.54 84 1010.3
20260507112037 60 294 2.0 4.0 0.06 1.63 0.52 84 1010.3
20260507111547 60 319 2.0 4.0 0.07 1.63 0.52 84 1010.2
20260507111038 60 123 1.0 2.0 0.09 1.63 0.52 84 1009.8
20260507110539 60 123 0.0 2.0 0.12 1.63 0.52 84 1009.9
20260507110055 60 0 0.0 3.0 0.13 1.62 0.52 84 1010.0
20260507105537 60 123 1.0 3.0 0.13 1.62 0.52 84 1009.8
20260507105037 60 123 1.0 3.0 0.12 1.61 0.51 85 1009.8
20260507104547 60 0 1.0 3.0 0.11 1.60 0.50 84 1010.4
20260507104039 60 0 0.0 3.0 0.10 1.59 0.49 84 1010.6
20260507103539 60 0 0.0 3.0 0.11 1.59 0.49 85 1010.4
20260507103046 60 195 0.0 2.0 0.11 1.59 0.49 85 1010.5